{"data":{"norad_id":59715,"epoch":"2026-09-21T22:04:24.804192Z","epoch_age_seconds":48697,"freshness":"FRESH","line1":"1 59715U 24088H   26264.91973153  .00000205  00000+0  65504-5 0  9998","line2":"2 59715  53.1606  78.8335 0001031  80.6729 279.4405 15.69706697137098","mean_motion":15.69706697,"eccentricity":0.0001031,"inclination_deg":53.1606,"raan_deg":78.8335,"arg_perigee_deg":80.6729,"mean_anomaly_deg":279.4405,"bstar":6.5504e-6,"rev_number":13709,"period_min":91.736883250362,"perigee_km":359.04152763087,"apogee_km":360.4308770852,"semimajor_km":6737.873202358,"source":"CELESTRAK","updated_at":"2026-09-22T09:00:49.058666Z"}}